Location: Moydans
(44.3997°N, 5.5038°E)
Time: 00:57:44
(UTC+02:00)

Nauka - Pass Details

Date: 27 September 2021
Orbit: 417 x 423 km, 51.6° (Epoch: 17 October)

Event Time Altitude Azimuth Distance (km) Brightness Sun altitude
Rises 20:08:23 0° 290° (WNW) 2,361 ? -8.4°
Reaches altitude 10° 20:10:47 10° 305° (NW) 1,498 ? -8.8°
Maximum altitude 20:13:32 23° 0° (N) 949 ? -9.3°
Drops below altitude 10° 20:16:17 10° 55° (NE) 1,500 ? -9.8°
Enters shadow 20:16:33 - 58° (ENE) 1,590 ? -9.9°
